INTELSAT 32E (IS-32E) (41945 NORAD) Tracking and Keplerian Element Data

This shows tracking and keplerian element data for the satellite.

Feedback or suggestion? Click here.




ElementValue
Catalog41945
NameINTELSAT 32E (IS-32E)
Epoch Orbit712
Epoch Day19.7896918
Epoch Year2019
RAAN58.8849
Inclination0.0229
Eccentricity7.52E-05
Argument of Perigee191.0091
Mean Anonmoly110.0979
Mean Motion1.00272782
Decay Rate-2.68E-06
L11 41945U 17007B 19019.78969180 -.00000268 00000-0 00000+0 0 9992
L22 41945 0.0229 58.8849 0000752 191.0091 110.0979 1.00272782 7121

Live tracking and technical data element details for INTELSAT 32E (IS-32E) (NORAD 41945). INTELSAT 32E (IS-32E) can be tracked NOW for your location showing map with azimuth and elevation plus other details from your city location.

Track the satellite on the map from your city or location and see movement details for azimuth, elevation, latitude, longitude, range, height, and movement on the map or in text.







IsCatalogInMostPopularTable: catalog: 41945, numindb: 177
Update: records affected: 1



GetName: 41945 INTELSAT 32E (IS-32E)

Hit Count: updated at: Tue, 22 Jan 2019 10:19:33 GMT